Date,TemperatureHighF,TemperatureAvgF,TemperatureLowF,DewpointHighF,DewpointAvgF,DewpointLowF,HumidityHigh,HumidityAvg,HumidityLow,PressureMaxIn,PressureMinIn,WindSpeedMaxMPH,WindSpeedAvgMPH,GustSpeedMaxMPH,PrecipitationSumIn
2013-1-2,27,24,21,17,14,12,70,65,61,30.26,30.11,4,2,13,0.00
2013-1-3,30,24,19,22,16,12,77,71,65,30.27,30.18,8,2,16,0.00
2013-1-4,33,28,26,24,21,19,80,75,67,30.21,30.10,11,7,26,0.01
2013-1-5,34,30,25,26,22,20,80,73,66,30.40,30.16,13,4,29,0.00
2013-1-6,38,35,30,30,27,24,82,73,66,30.22,30.05,5,2,13,0.08
2013-1-7,36,32,28,30,26,23,82,77,72,30.45,30.17,6,2,18,0.08
2013-1-8,44,35,29,33,28,23,85,77,63,30.44,30.37,2,0,9,0.18
2013-1-9,46,40,36,42,34,30,89,78,67,30.41,30.24,10,3,27,0.16
2013-1-10,43,38,34,32,29,27,77,70,60,30.61,30.38,8,3,28,0.00
2013-1-11,40,36,34,39,32,28,97,86,74,30.51,30.12,4,1,16,0.22
2013-1-12,56,46,37,54,45,36,100,96,85,30.19,30.11,4,0,9,0.00
2013-1-13,55,49,44,54,49,44,100,98,96,30.12,29.96,3,1,12,0.01
2013-1-14,55,45,34,55,42,32,100,90,75,30.30,29.96,9,2,23,0.25
2013-1-15,34,32,29,32,30,28,96,92,84,30.36,30.17,4,0,9,0.12
2013-1-16,37,31,28,35,30,28,97,96,88,30.17,29.88,4,0,9,0.01
2013-1-17,37,33,31,33,28,26,89,82,66,30.15,30.01,5,2,15,0.06
2013-1-18,31,26,20,26,17,10,84,68,57,30.49,30.07,8,3,27,0.00
2013-1-19,48,32,23,33,26,20,92,77,55,30.42,29.96,3,1,15,0.00
2013-1-20,47,37,26,33,24,15,79,59,35,30.08,29.83,10,5,30,0.00
2013-1-21,33,25,18,24,16,8,76,68,59,30.09,29.86,10,2,25,0.00
2013-1-22,18,10,7,8,-1,-4,72,60,49,30.32,29.95,12,6,31,0.00
2013-1-23,17,10,5,7,0,-2,81,64,49,30.38,30.18,6,2,17,0.00
2013-1-24,19,13,9,8,5,0,88,72,53,30.55,30.14,8,3,23,0.00
2013-1-25,15,12,9,11,5,0,91,75,58,30.55,30.10,4,0,14,0.00
2013-1-26,24,19,13,20,16,11,92,88,79,30.48,30.12,4,0,11,0.00
2013-1-27,29,23,16,22,17,12,89,78,67,30.62,30.48,3,0,10,0.05
2013-1-28,44,30,25,43,28,22,98,93,79,30.51,30.10,3,1,12,0.22
2013-1-29,62,54,44,56,50,43,98,87,78,30.15,29.95,4,2,13,0.02
2013-1-30,62,54,51,60,53,50,100,95,83,29.96,29.23,9,3,27,1.82
2013-1-31,52,32,22,52,25,11,99,75,61,29.86,29.15,16,8,33,0.38